Skip Page Navigation
NASA JPL Caltech
NASA Logo - Jet Propulsion Laboratory + View the NASA Portal
+ Center for Near-Earth Object Studies
JPL Home Earth Solar System Stars & Galaxies Technology
JPL Solar System Dynamics
BODIES ORBITS EPHEMERIDES TOOLS PHYSICAL DATA DISCOVERY FAQ SITE MAP
IMPORTANT: The SSD Announcement email list is now available. Major changes are coming in the near future, including possible hostname and/or URL changes. To be notified of such changes, subscribe to this email list.

Please visit this page for more details.


JPL Small-Body Database Browser
Search: [ help ]  
410102 (2007 EG127)
Classification: Main-belt Asteroid          SPK-ID: 2410102
Ephemeris | Orbit Diagram | Orbital Elements | Mission Design | Physical Parameters | Discovery Circumstances | Close-Approach Data ]

[ show orbit diagram ]
Orbital Elements at Epoch 2458600.5 (2019-Apr-27.0) TDB
Reference: JPL 12 (heliocentric ecliptic J2000)
 Element Value Uncertainty (1-sigma)   Units 
e .3221128342951023 3.405e-07  
a 2.59741663325283 1.1648e-07 au
q 1.760755399670519 9.6185e-07 au
i 6.405964499055104 1.1611e-05 deg
node 45.09464219352333 4.1796e-05 deg
peri 70.00815021672965 6.3578e-05 deg
M 349.2353507273884 7.3067e-05 deg
tp 2458646.220212110657
(2019-Jun-11.72021211)
0.00031331 TDB
period 1529.011855659223
4.19
0.00010285
2.816e-07
d
yr
n .2354461796143421 1.5838e-08 deg/d
Q 3.434077866835141 1.54e-07 au
  Orbit Determination Parameters
   # obs. used (total)      160  
   data-arc span      5733 days (15.70 yr)  
   first obs. used      2003-04-24  
   last obs. used      2019-01-03  
   planetary ephem.      DE431  
   SB-pert. ephem.      SB431-N16  
   condition code      0  
   norm. resid. RMS      .61841  
   source      ORB  
   producer      Otto Matic  
   solution date      2019-Jul-14 14:14:52  

Additional Information
 Earth MOID = .78962 au 
 Jupiter MOID = 1.74149 au 
 T_jup = 3.333 
[ show covariance matrix ]

Ephemeris | Orbit Diagram | Orbital Elements | Mission Design | Physical Parameters | Discovery Circumstances | Close-Approach Data ]

Physical Parameter Table
Parameter Symbol Value Units Sigma Reference Notes
absolute magnitude H 17.5   n/a MPO455915  

410102 (2007 EG127)          Discovered 2007-Mar-09 by NEAT at Palomar
Reference: Last Updated: 2014-10-09

[ show close-approach data ]
Ephemeris | Orbit Diagram | Orbital Elements | Mission Design | Physical Parameters | Discovery Circumstances | Close-Approach Data ]
ABOUT SSD CREDITS/AWARDS PRIVACY/COPYRIGHT GLOSSARY LINKS
FirstGov 2020-Jan-25 08:14 UT
(server date/time)  
NASA Home Page
Site Manager:   Ryan S. Park
Webmaster  Alan B. Chamberlin